www.pogodaiklimat.ru

Архив погоды в Белфасте (Великобритания)

Время
(UTC), дата
10 15.06
11 15.06
12 15.06
13 15.06
14 15.06
15 15.06
16 15.06
17 15.06
18 15.06
19 15.06
20 15.06
21 15.06
22 15.06
23 15.06
00 16.06
01 16.06
02 16.06
03 16.06
04 16.06
05 16.06
06 16.06
07 16.06
08 16.06
09 16.06
10 16.06
11 16.06
12 16.06
13 16.06
14 16.06
15 16.06
16 16.06
17 16.06
18 16.06
19 16.06
20 16.06
21 16.06
22 16.06
23 16.06
00 17.06
01 17.06
02 17.06
03 17.06
04 17.06
05 17.06
06 17.06
07 17.06
08 17.06
09 17.06
10 17.06
11 17.06
12 17.06
13 17.06
14 17.06
15 17.06
16 17.06
17 17.06
18 17.06
19 17.06
20 17.06
21 17.06
22 17.06
23 17.06
00 18.06
01 18.06
02 18.06
03 18.06
04 18.06
05 18.06
06 18.06
07 18.06
08 18.06
09 18.06
10 18.06
11 18.06
12 18.06
13 18.06
14 18.06
15 18.06
16 18.06
17 18.06
18 18.06
19 18.06
20 18.06
21 18.06
22 18.06
23 18.06
00 19.06
01 19.06
02 19.06
03 19.06
04 19.06
05 19.06
06 19.06
07 19.06
08 19.06
09 19.06
10 19.06
11 19.06
12 19.06
13 19.06
14 19.06
15 19.06
16 19.06
17 19.06
18 19.06
19 19.06
20 19.06
21 19.06
22 19.06
23 19.06
00 20.06
01 20.06
02 20.06
03 20.06
04 20.06
05 20.06
06 20.06
07 20.06
08 20.06
09 20.06
10 20.06
11 20.06
12 20.06
13 20.06
14 20.06
15 20.06
16 20.06
17 20.06
18 20.06
19 20.06
20 20.06
21 20.06
22 20.06
23 20.06
00 21.06
01 21.06
02 21.06
03 21.06
04 21.06
05 21.06
06 21.06
07 21.06
08 21.06
09 21.06
10 21.06
11 21.06
12 21.06
13 21.06
14 21.06
15 21.06
16 21.06
17 21.06
18 21.06
19 21.06
20 21.06
21 21.06
22 21.06
23 21.06
00 22.06
01 22.06
02 22.06
03 22.06
04 22.06
05 22.06
06 22.06
07 22.06
08 22.06
09 22.06
Ветер
(напр.,м/с)
Видим. Явления Облачность Т
(С)
Тd
(С)
f
(%)
Тe
(С)
Тes
(С)
Комфортность P
(гПа)
Po
(гПа)
Тmin
(С)
Tmax
(С)
R
(мм)
R24
(мм)
S
(см)
СВ 1-3 {3} 60 км 9/9 540 м +12.0 +6.6 70 +12 +14 тепло 995.3 987.9
С 2-3 {4} 35 км слаб. дождь 10/10 1170 м +11.9 +8.7 81 +11 +11 тепло 995.7 988.2
В 5-7 {8} 9000 м слаб. дождь 10/10 630 м +11.8 +8.2 79 +9 +9 холодно 996.1 988.6 0.2
СВ 3-5 {7} >70 км в посл. час дождь 10/10 1410 м +13.9 +8.3 69 +13 +13 по сезону 996.0 988.6 0.2
СВ 3-4 {5} >70 км 10/10 930 м +14.1 +6.9 62 +13 +13 по сезону 996.2 988.8
В 2-5 {6} >70 км 3/3 900 м +15.4 +7.0 57 +15 +24 по сезону 996.2 988.8
В 3-6 {6} >70 км 5/5 1080 м +15.3 +6.8 57 +15 +18 тепло 996.2 988.8
С 2-4 {5} 55 км 10/10 1170 м +14.7 +9.2 70 +15 +15 тепло 996.5 989.0
С 3-6 {6} 24 км слаб. дождь 10/10 930 м +13.7 +7.5 66 +13 +13 по сезону 997.0 989.5 +16.4
штиль 0-1 {6} 55 км в посл. час дождь 10/10 1470 м +13.3 +8.7 74 +13 +13 по сезону 997.3 989.9 0.2
Ю 2-2 {3} 55 км ясно +12.4 +8.9 79 +12 +12 по сезону 997.6 990.1
С 2-2 {2} 40 км ясно +12.0 +9.3 84 +11 +11 по сезону 998.1 990.6 +16.4 0.6
СЗ 2-2 {3} 60 км ясно +10.0 +6.8 80 +9 +9 по сезону 998.5 991.0
СЗ 2-3 {3} 35 км ясно +9.3 +8.4 94 +8 +8 по сезону 998.6 991.0
СЗ 2-3 {3} 30 км ясно +9.1 +8.3 95 +8 +8 по сезону 998.8 991.2
СЗ 2-3 {3} 29 км 6/6 270 м +8.9 +8.2 95 +7 +7 по сезону 998.7 991.2
З 2-3 {4} 30 км 8/8 300 м +9.0 +8.2 95 +7 +7 тепло 999.0 991.4
З 3-4 {4} 35 км 5/5 1500 м +8.7 +7.7 93 +6 +6 по сезону 999.1 991.5
СЗ 2-4 {4} 40 км 3/3 2000 м +8.7 +7.8 94 +7 +7 по сезону 999.3 991.7
З 3-4 {5} 35 км 1/1 +9.2 +8.0 92 +7 +7 тепло 999.6 992.0
З 3-4 {4} 40 км ясно +10.6 +8.7 88 +9 +10 по сезону 999.5 992.0 +8.0 +13.7 0.6
З 4-5 {5} 45 км 3/3 330 м +12.0 +9.2 83 +10 +12 тепло 999.4 991.8
ЮЗ 5-7 {7} 45 км 6/6 600 м +12.4 +8.9 79 +10 +11 тепло 999.6 992.1
З 4-6 {7} 60 км 10/10 570 м +13.6 +9.3 75 +12 +12 по сезону 999.7 992.2 +13.6
З 5-7 {7} >70 км 1/1 800 м +15.1 +9.0 67 +14 +20 тепло 999.8 992.3
З 5-6 {7} >70 км 10/10 840 м +14.2 +8.5 69 +13 +13 тепло 1000.0 992.5
З 5-7 {8} >70 км в посл. час дождь 10/10 1140 м +14.4 +9.5 72 +13 +13 по сезону 1000.2 992.7
З 4-6 {6} 55 км в посл. час дождь 10/10 1020 м +13.8 +11.7 87 +12 +12 по сезону 1000.5 993.0 0.6
З 4-7 {8} 35 км слаб. дождь 10/10 330 м +14.0 +12.6 91 +12 +12 тепло 1000.8 993.3 0.8
СЗ 4-7 {7} 30 км слаб. морось 10/10 360 м +14.4 +11.8 84 +13 +13 по сезону 1001.2 993.8
СЗ 4-7 {8} 26 км в посл. час морось 10/10 480 м +14.4 +11.0 80 +13 +13 тепло 1001.4 993.9
СЗ 3-7 {8} 28 км 10/10 360 м +13.4 +10.6 83 +12 +12 тепло 1001.8 994.4
СЗ 3-6 {8} 30 км в посл. час дождь 10/10 300 м +13.2 +11.1 87 +12 +12 по сезону 1002.1 994.6 +15.9
СЗ 5-9 {9} 45 км 10/10 300 м +13.0 +10.5 85 +11 +11 по сезону 1002.5 995.0
СЗ 4-7 {9} 30 км 10/10 270 м +12.0 +9.7 86 +10 +10 по сезону 1003.2 995.6
З 4-7 {9} 27 км в посл. час морось 10/10 330 м +11.6 +9.1 85 +9 +9 по сезону 1004.0 996.4 +15.9 1
З 4-6 {8} 26 км 10/10 420 м +11.5 +9.0 85 +9 +9 по сезону 1004.6 997.1
СЗ 5-7 {7} 30 км 10/10 300 м +11.3 +9.5 89 +9 +9 тепло 1004.8 997.2
З 5-7 {7} 35 км 10/10 270 м +11.2 +9.6 90 +8 +8 по сезону 1004.9 997.3
З 4-7 {7} 30 км 10/10 270 м +11.4 +9.9 90 +9 +9 тепло 1005.0 997.5
З 4-6 {8} 4100 м дымка 10/10 90 м +11.1 +10.5 96 +9 +9 тепло 1005.2 997.6
СЗ 4-6 {7} 9000 м в посл. час морось 10/10 120 м +11.3 +10.7 96 +9 +9 по сезону 1005.4 997.9
СЗ 4-8 {9} 10 км 10/10 180 м +11.4 +10.6 95 +9 +9 тепло 1005.9 998.4
СЗ 4-7 {8} 9000 м 10/10 180 м +11.4 +10.5 94 +9 +9 тепло 1006.6 999.0
СЗ 4-7 {8} 13 км 10/10 180 м +11.6 +10.4 92 +9 +9 по сезону 1007.5 999.9 +11.1 +13.4 1.4
СЗ 5-8 {9} 23 км 10/10 270 м +11.8 +9.9 88 +9 +9 тепло 1008.0 1000.4
СЗ 3-6 {9} 30 км 10/10 300 м +12.7 +10.1 84 +11 +11 тепло 1008.8 1001.2
СЗ 4-7 {8} 40 км 10/10 420 м +14.0 +10.4 79 +13 +13 тепло 1009.3 1001.8 +14.1
СЗ 3-5 {9} 50 км 10/10 630 м +13.0 +9.2 78 +12 +12 тепло 1010.1 1002.6
СЗ 3-6 {8} 50 км 10/10 540 м +13.0 +9.2 78 +12 +12 тепло 1010.9 1003.3
СЗ 4-7 {7} 65 км 10/10 450 м +13.2 +9.6 79 +12 +12 по сезону 1011.3 1003.7
СЗ 4-6 {7} 65 км 10/10 540 м +13.5 +9.1 75 +12 +12 тепло 1011.7 1004.1
СЗ 4-7 {7} 55 км в посл. час дождь 10/10 500 м +13.2 +9.5 78 +12 +12 тепло 1012.0 1004.4
СЗ 4-6 {8} 50 км в посл. час морось 10/10 570 м +13.3 +9.3 77 +12 +12 по сезону 1012.6 1005.0
СЗ 4-6 {8} 55 км 10/10 630 м +13.2 +8.9 75 +12 +12 тепло 1012.9 1005.3
СЗ 4-7 {7} 50 км 10/10 540 м +12.8 +8.7 76 +11 +11 тепло 1013.4 1005.8
СЗ 5-9 {9} 55 км 10/10 630 м +12.6 +7.9 73 +11 +11 по сезону 1013.7 1006.1 +14.1
СЗ 5-8 {10} 65 км 10/10 630 м +11.8 +7.4 74 +9 +9 по сезону 1014.1 1006.5
СЗ 4-7 {9} >70 км 10/10 540 м +11.6 +8.0 79 +9 +9 тепло 1014.7 1007.0
СЗ 3-5 {8} 45 км в посл. час морось 10/10 330 м +10.9 +8.7 86 +9 +9 по сезону 1015.2 1007.5 +14.0
СЗ 2-4 {8} 26 км в посл. час морось 10/10 400 м +10.7 +8.7 87 +9 +9 тепло 1015.8 1008.1
СЗ 3-7 {7} 29 км слаб. морось с дождем 10/10 180 м +9.8 +8.6 92 +7 +7 тепло 1016.3 1008.6
СЗ 3-5 {6} 35 км в посл. час дождь 10/10 420 м +10.1 +8.3 89 +8 +8 по сезону 1016.5 1008.8
З 4-5 {6} 45 км 10/10 840 м +10.1 +6.6 79 +8 +8 тепло 1016.4 1008.7
З 3-6 {6} 45 км 10/10 600 м +10.0 +6.4 78 +8 +8 тепло 1016.6 1008.9
З 4-5 {6} 45 км 10/10 750 м +9.9 +7.0 82 +7 +7 по сезону 1016.4 1008.7
СЗ 3-5 {5} 40 км 10/10 930 м +9.9 +7.4 84 +8 +8 тепло 1016.5 1008.8
СЗ 2-4 {6} 50 км 10/10 330 м +9.8 +7.8 87 +8 +8 тепло 1016.7 1009.0
СЗ 3-5 {5} 55 км в посл. час морось 10/10 180 м +9.6 +8.5 93 +7 +7 по сезону 1017.1 1009.4 +9.4 +12.6
СЗ 4-7 {7} 65 км в посл. час морось 10/10 240 м +10.5 +9.0 90 +8 +8 тепло 1017.5 1009.8
СЗ 6-9 {9} >70 км в посл. час дождь 10/10 400 м +10.7 +8.1 84 +8 +8 тепло 1017.8 1010.1
СЗ 4-7 {11} 35 км в посл. час морось 10/10 540 м +10.8 +8.2 84 +8 +8 по сезону 1018.4 1010.8 +11.2
С 4-8 {8} 35 км 10/10 500 м +11.3 +7.3 76 +9 +9 тепло 1018.7 1011.1
СЗ 5-9 {9} 50 км 9/9 1000 м +12.8 +5.3 60 +11 +12 тепло 1018.9 1011.2
СЗ 5-8 {9} 50 км 10/10 900 м +12.5 +5.7 63 +11 +11 по сезону 1019.2 1011.5
СЗ 4-7 {9} 40 км 10/10 750 м +13.0 +7.6 70 +11 +11 тепло 1019.3 1011.6
СЗ 5-9 {9} 45 км 10/10 870 м +13.1 +6.8 66 +11 +11 тепло 1019.4 1011.8
СЗ 5-9 {9} 40 км 10/10 930 м +13.3 +6.8 65 +12 +12 тепло 1019.7 1012.1
СЗ 5-8 {10} 40 км 10/10 800 м +13.6 +7.5 67 +12 +12 тепло 1020.1 1012.4
СЗ 5-9 {10} 40 км 10/10 870 м +12.8 +7.0 68 +11 +11 тепло 1020.5 1012.9
СЗ 5-9 {10} 40 км 10/10 800 м +13.2 +6.8 65 +11 +11 тепло 1020.7 1013.0 +14.0
СЗ 6-9 {10} 40 км 1/1 1050 м +12.0 +6.2 68 +9 +10 тепло 1021.0 1013.3
СЗ 4-8 {10} 40 км 5/5 660 м +11.1 +6.4 73 +9 +9 тепло 1021.3 1013.6
СЗ 4-6 {8} 35 км 1/1 660 м +9.5 +6.5 82 +7 +7 по сезону 1022.0 1014.3 +14.0
СЗ 3-5 {6} 30 км 8/8 500 м +8.9 +7.0 88 +7 +7 тепло 1022.4 1014.6
СЗ 2-4 {6} 26 км ясно +8.0 +6.5 90 +6 +6 тепло 1022.5 1014.8
СЗ 2-4 {4} 25 км 3/3 480 м +7.4 +6.3 93 +5 +5 по сезону 1022.7 1014.8
СЗ 2-3 {4} 24 км 1/1 500 м +7.0 +6.2 95 +5 +5 тепло 1022.8 1015.0
СЗ 1-2 {3} 24 км ясно +6.4 +5.8 96 +5 +5 тепло 1022.5 1014.7
СЗ 1-2 {2} 22 км ясно +5.9 +5.4 97 +5 +5 по сезону 1022.6 1014.7
СЗ 1-2 {3} 21 км ясно +5.7 +5.3 97 +4 +4 тепло 1022.4 1014.6
СЗ 2-3 {3} 22 км ясно +6.4 +6.1 98 +4 +5 тепло 1022.7 1014.9
СЗ 1-2 {3} 26 км ясно +7.6 +7.1 97 +6 +8 по сезону 1022.9 1015.1 +5.6 +13.2
СЗ 2-5 {5} 30 км 3/3 +9.5 +7.8 89 +8 +10 тепло 1023.3 1015.5
С 2-3 {5} 35 км ясно +11.2 +7.5 78 +10 +17 тепло 1023.2 1015.5
З 3-5 {5} 40 км ясно +11.6 +6.9 73 +10 +18 тепло 1023.3 1015.6 +12.0
СЗ 3-5 {6} 45 км в посл. час дождь 1/1 700 м +13.0 +7.0 67 +12 +22 тепло 1023.4 1015.8
З 2-4 {5} 45 км 3/3 750 м +13.9 +6.3 60 +13 +24 опасность простуды 1023.5 1015.8
С 2-4 {5} 45 км 1/1 870 м +14.7 +6.9 59 +15 +31 опасность простуды 1023.3 1015.7
2-3 {5} 50 км ясно +15.9 +7.4 57 +16 +34 опасность простуды 1022.8 1015.3
З 3-5 {7} 55 км ясно +16.8 +6.3 50 +17 +30 опасность простуды 1022.4 1014.9
Ю 4-6 {6} 40 км ясно +17.6 +6.7 49 +17 +26 тепло 1021.9 1014.4
ЮЗ 4-6 {7} 40 км ясно +18.8 +7.2 47 +19 +26 тепло 1021.9 1014.4
Ю 3-6 {6} 55 км 3/3 +18.7 +6.8 46 +19 +23 тепло 1021.7 1014.2
З 3-5 {6} 65 км ясно +19.1 +6.0 42 +20 +22 тепло 1021.3 1013.8 +19.3
СЗ 3-5 {7} 40 км 1/1 +16.8 +9.5 62 +17 +18 тепло 1021.3 1013.8
С 1-2 {5} 50 км 1/1 +15.5 +8.9 65 +16 +16 тепло 1021.4 1013.8
СВ 2-3 {3} 30 км ясно +13.7 +9.5 76 +13 +13 тепло 1022.1 1014.4 +19.3
СВ 2-4 {4} 40 км ясно +11.9 +8.4 79 +11 +11 тепло 1022.3 1014.6
В 2-3 {4} 40 км 4/4 +11.3 +7.8 79 +10 +10 тепло 1022.3 1014.6
В 2-3 {3} 40 км 10/10 700 м +11.4 +7.9 79 +11 +11 по сезону 1022.4 1014.7
ЮВ 2-3 {3} 30 км 8/8 +11.6 +8.7 82 +11 +11 тепло 1021.8 1014.2
Ю 2-3 {4} 26 км 10/10 +11.3 +9.5 89 +10 +10 тепло 1021.7 1014.0
ЮЗ 2-3 {3} 18 км 10/10 +11.3 +9.3 87 +10 +10 по сезону 1021.6 1014.0
ЮЗ 3-4 {4} 16 км 10/10 420 м +11.4 +9.5 88 +10 +10 тепло 1021.2 1013.5
ЮЗ 2-3 {4} 14 км 10/10 330 м +11.7 +10.1 90 +10 +10 тепло 1020.8 1013.1
ЮЗ 3-4 {4} 15 км 10/10 330 м +12.0 +10.1 88 +11 +11 по сезону 1020.6 1013.0 +11.1 +19.3
ЮЗ 3-4 {4} 18 км 10/10 270 м +12.1 +10.2 88 +11 +11 тепло 1020.6 1012.9
ЮЗ 2-4 {4} 19 км 10/10 500 м +12.5 +10.5 88 +12 +12 тепло 1020.4 1012.7
ЮЗ 3-5 {5} 20 км в посл. час морось 10/10 330 м +13.5 +10.3 81 +12 +12 по сезону 1020.1 1012.5 +13.7
Ю 3-5 {5} 20 км 10/10 420 м +14.1 +9.9 76 +13 +13 тепло 1019.7 1012.1
ЮЗ 3-5 {5} 21 км 10/10 500 м +16.0 +11.1 73 +16 +16 тепло 1019.5 1011.9
ЮЗ 3-5 {6} 14 км 10/10 570 м +16.9 +11.2 69 +17 +17 тепло 1018.9 1011.3
ЮЗ 4-6 {7} 23 км 9/9 700 м +16.9 +10.6 66 +17 +18 тепло 1018.3 1010.7
ЮЗ 4-7 {7} 29 км 9/9 750 м +18.0 +10.7 62 +18 +19 тепло 1017.8 1010.3
З 4-6 {8} 30 км 9/9 840 м +17.7 +11.5 67 +17 +18 тепло 1017.1 1009.6
ЮЗ 3-5 {5} 30 км 10/10 1470 м +18.4 +11.8 65 +19 +19 тепло 1016.5 1009.0
ЮЗ 3-4 {6} 28 км 10/10 1050 м +18.4 +12.4 68 +19 +19 тепло 1015.9 1008.4
ЮЗ 2-3 {4} 28 км 10/10 900 м +18.9 +12.7 67 +20 +20 тепло 1015.2 1007.7 +19.5
Ю 4-6 {6} 26 км 8/8 1000 м +18.2 +11.9 67 +18 +19 тепло 1014.5 1007.1
Ю 4-6 {7} 28 км 10/10 900 м +17.3 +11.6 69 +17 +17 тепло 1014.2 1006.7
Ю 4-7 {7} 28 км 10/10 900 м +16.6 +11.7 73 +16 +16 тепло 1013.9 1006.4 +19.5
Ю 4-6 {7} 30 км 10/10 1000 м +16.5 +11.3 71 +16 +16 тепло 1013.6 1006.1
Ю 4-6 {7} 30 км 10/10 1170 м +16.4 +11.4 72 +16 +16 тепло 1013.1 1005.6
Ю 3-5 {6} 30 км 10/10 1140 м +16.1 +11.8 76 +16 +16 тепло 1012.7 1005.2
Ю 3-5 {6} 30 км 10/10 1140 м +16.0 +12.1 78 +16 +16 тепло 1012.0 1004.5
Ю 4-6 {6} 24 км слаб. морось с дождем 10/10 450 м +15.7 +13.0 84 +15 +15 тепло 1011.4 1003.9
ЮЗ 4-7 {9} 28 км в посл. час морось 10/10 400 м +15.5 +13.7 89 +14 +14 тепло 1010.6 1003.1
Ю 2-3 {6} 35 км 10/10 300 м +15.4 +13.7 90 +15 +15 тепло 1009.8 1002.3
ЮВ 4-6 {6} 25 км 10/10 420 м +15.6 +13.2 86 +15 +15 тепло 1009.1 1001.6
Ю 4-6 {6} 26 км 10/10 450 м +15.7 +13.1 85 +15 +15 тепло 1008.8 1001.3 +15.4 +19.1
Ю 6-9 {9} 25 км 10/10 720 м +15.0 +11.4 79 +13 +13 тепло 1008.5 1001.0
Ю 5-8 {9} 18 км дождь 10/10 960 м +14.0 +12.4 90 +12 +12 тепло 1008.3 1000.8
Ю 6-9 {9} 29 км в посл. час дождь 10/10 2000 м +14.4 +11.8 84 +12 +12 по сезону 1007.8 1000.3 +16.6
Ю 5-8 {10} 30 км 10/10 2000 м +15.4 +11.4 77 +14 +14 тепло 1007.4 999.9
Ю 6-8 {9} 35 км 10/10 600 м +16.5 +11.8 74 +15 +15 тепло 1007.0 999.6
Ю 5-8 {9} 30 км 10/10 700 м +16.7 +11.5 71 +16 +16 по сезону 1006.6 999.1
Ю 6-9 {9} 30 км 10/10 720 м +16.7 +11.0 69 +16 +16 тепло 1006.3 998.9
Ю 7-10 {10} 29 км в посл. час дождь 10/10 720 м +16.9 +11.4 70 +16 +16 тепло 1005.9 998.5
Ю 4-7 {11} 13 км слаб. дождь 10/10 720 м +15.6 +12.6 82 +15 +15 по сезону 1005.4 998.0
Ю 5-7 {7} 9000 м слаб. дождь 10/10 420 м +15.4 +13.4 88 +14 +14 по сезону 1005.2 997.7 0.8
Ю 5-7 {8} 7000 м слаб. дождь 10/10 330 м +15.5 +13.8 90 +14 +14 тепло 1004.9 997.4 0.2
Ю 6-8 {9} 24 км слаб. дождь 10/10 960 м +15.9 +13.8 87 +15 +15 по сезону 1004.4 997.0 +17.7 0.2
Ю 6-9 {10} 30 км слаб. дождь 10/10 270 м +14.9 +13.5 91 +13 +13 по сезону 1004.3 996.8 0.2
З 4-5 {13} 55 км слаб. дождь 10/10 750 м +13.3 +12.3 94 +12 +12 по сезону 1005.5 998.0 1
ЮЗ 3-4 {5} 50 км в посл. час дождь 10/10 1000 м +13.2 +12.3 94 +12 +12 по сезону 1006.3 998.8 +17.7 3
ЮЗ 4-5 {5} 45 км 10/10 600 м +13.2 +11.9 92 +12 +12 по сезону 1007.1 999.6
З 4-6 {6} 35 км 10/10 330 м +13.1 +11.3 89 +11 +11 тепло 1007.6 1000.1
З 3-4 {6} 35 км 6/6 360 м +11.7 +9.4 86 +10 +10 по сезону 1008.0 1000.4
З 3-4 {4} 30 км ясно +9.7 +8.3 91 +8 +8 по сезону 1008.4 1000.8
ЮЗ 3-5 {5} 29 км ясно +8.8 +7.8 93 +6 +6 по сезону 1008.7 1001.1
ЮЗ 4-5 {5} 19 км 1/1 330 м +9.4 +8.9 97 +7 +7 прохладно 1008.9 1001.2
ЮЗ 3-4 {5} 20 км 3/3 630 м +9.5 +9.0 97 +7 +7 по сезону 1009.2 1001.6
ЮЗ 2-4 {4} 25 км в посл. час морось 10/10 270 м +10.7 +10.0 95 +9 +9 тепло 1009.6 1002.0
ЮЗ 3-4 {5} 25 км 10/10 1050 м +11.1 +10.3 95 +9 +9 по сезону 1009.9 1002.3 +8.7 +16.1 2.8
Ю 3-4 {4} 25 км 10/10 180 м +11.9 +10.8 93 +10 +10 по сезону 1010.1 1002.5
Ю 4-5 {5} 35 км 10/10 240 м +12.8 +11.2 90 +11 +11 тепло 1010.3 1002.7
Ю 4-6 {6} 45 км 10/10 1080 м +13.7 +10.1 79 +12 +12 по сезону 1010.6 1003.0 +13.8
Местоположение метеостанции Белфаст (Великобритания): широта 54.65 долгота -6.22 высота над уровнем моря 68 м.
В архиве по умолчанию представлена погода в Белфасте за последнюю неделю. Архивные данные за месяц целиком и за предыдущие месяцы, начиная с января 2011 года, Вы можете получить, выбрав интересующий диапазон дат из раскрывающегося списка и нажав кнопку "Найти!".
*Определитесь, кто Вы:
Внимание! Время в таблицах - всемирное. Для получения местного времени необходимо прибавить поправку, которая равна 0 ч.
Некоторые строки с данными для отдельных станций могут быть выделены курсивом. Это означает, что фактические данные отсутствуют по различным причинам, а приведенные значения являются расчетными модельными данными для данного пункта наблюдений.
Смотрите также архив погоды в соседних городах и на ближайших метеорологических станциях:
Партнеры нашего сайта:      
Пояснения к столбцам:
  • Ветер - указаны скорость ветра в м/с - средняя за 10 мин, порывы в срок и между сроками (в фигурных скобках) и направление, откуда дует ветер: С - северный,
  • СВ - северо-восточный, В - восточный, ЮВ - юго-восточный, Ю - южный, ЮЗ - юго-западный, З - западный, СЗ - северо-западный.
  • Видимость - горизонтальная дальность видимости в метрах или километрах. При видимости от 1 до 10 км при отсутствии осадков обычно наблюдается дымка, при ухудшении видимости до 1 км и менее - туман. В сухую погоду видимость может ухудшаться дымом, пылью или мглою.
  • Явления - указаны атмосферные явления, наблюдавшиеся в срок или в последний час перед сроком; фигурными скобками обозначены явления, наблюдавшиеся между сроками (за 1-3 часа до срока); квадратными скобками обозначены град или гололедные отложения с указанием их диаметра в мм.
  • Облачность - указаны через наклонную черту общая и нижняя облачность в баллах и высота нижней границы облаков в метрах; квадратными скобками обозначены формы облаков: Ci - перистые, Cs - перисто-слоистые, Cc - перисто-кучевые, Ac - высококучевые, As - высокослоистые, Sc - слоисто-кучевые, Ns - слоисто-дождевые, Cu - кучевые, Cb - кучево-дождевые. Подробнее классификацию облаков см. в Атласе облаков (PDF).
  • T - Температура воздуха - температура, измеренная на высоте 2 м над землей.
  • Td - Температура точки росы - температура, при понижении до которой содержащийся в воздухе водяной пар достигнет насыщения.
  • f - Относительная влажность воздуха - влажноcть воздуха, измеренная на высоте 2 м над землей.
  • Te - Эффективная температура - температура, которую ощущает одетый по сезону человек в тени. Характеристика душности погоды. При расчете учитывается влияние влажности воздуха и скорости ветра на теплоощущения человека.
  • Tes - Эффективная температура на солнце - температура, которую ощущает человек, с поправкой на солнечный нагрев. Характеристика знойности погоды. Зависит от высоты солнца над горизонтом, облачности и скорости ветра. Ночью, в пасмурную погоду, а также при ветре 12 м/с и более поправка равна нулю.
  • P - Атмосферное давление - приведенное к уровню моря атмосферное давление.
  • Po - Атмосферное давление - измеренное на уровне метеостанции атмосферное давление.
  • Tmin - Минимальная температура - минимум температуры воздуха на высоте 2 м над землей.
  • Tmax - Максимальная температура - максимум температуры воздуха на высоте 2 м над землей.
  • R - Количество осадков - Количество выпавших осадков за период времени, мм. При наведении курсора мыши на число - период времени, за который выпало указанное количество осадков.
  • R24 - Количество осадков - Количество выпавших осадков за 24 часа, мм.
  • S - Снежный покров - Высота снежного покрова, см. При наведении курсора мыши на число - состояние снежного покрова и степень покрытия местности в баллах.